| time (UTC) | temp F | wind direction | speed MPH | gust MPH | rain 1hr in | rain 24hr in | rain mn in | humidity % | barometer mb |
| 20260506073010 | 53 | 360 | 9.0 | 16.0 | 0.00 | 0.00 | 0.00 | 59 | 1009.1 |
| 20260506071509 | 54 | 360 | 9.0 | 14.0 | 0.00 | 0.00 | 0.00 | 59 | 1009.0 |
| 20260506061554 | 56 | 360 | 10.0 | 16.0 | 0.00 | 0.00 | 0.00 | 56 | 1008.9 |
| 20260506044538 | 60 | 360 | 8.0 | 17.0 | 0.00 | 0.00 | 0.00 | 51 | 1007.9 |
| 20260506043032 | 62 | 360 | 9.0 | 13.0 | 0.00 | 0.00 | 0.00 | 49 | 1007.7 |
| 20260506041534 | 63 | 360 | 8.0 | 15.0 | 0.00 | 0.00 | 0.00 | 47 | 1007.6 |
| 20260506040028 | 64 | 360 | 6.0 | 11.0 | 0.00 | 0.00 | 0.00 | 46 | 1007.5 |
| 20260506034523 | 64 | 360 | 5.0 | 18.0 | 0.00 | 0.00 | 0.00 | 44 | 1007.2 |
| 20260506033020 | 65 | 360 | 7.0 | 18.0 | 0.00 | 0.00 | 0.00 | 43 | 1007.2 |
| 20260506031526 | 66 | 360 | 6.0 | 14.0 | 0.00 | 0.00 | 0.00 | 41 | 1007.0 |
| 20260506030014 | 68 | 360 | 12.0 | 19.0 | 0.00 | 0.00 | 0.00 | 38 | 1006.9 |
| 20260506024525 | 70 | 360 | 10.0 | 15.0 | 0.00 | 0.00 | 0.00 | 36 | 1006.5 |
| 20260506023008 | 71 | 360 | 8.0 | 14.0 | 0.00 | 0.00 | 0.00 | 34 | 1006.2 |
| 20260506021510 | 73 | 360 | 6.0 | 12.0 | 0.00 | 0.00 | 0.00 | 33 | 1006.1 |
| 20260506020006 | 74 | 360 | 5.0 | 12.0 | 0.00 | 0.00 | 0.00 | 32 | 1005.9 |
| 20260506014510 | 75 | 360 | 6.0 | 13.0 | 0.00 | 0.00 | 0.00 | 30 | 1005.6 |
| 20260506013002 | 77 | 360 | 10.0 | 17.0 | 0.00 | 0.00 | 0.00 | 28 | 1005.2 |
| 20260506011502 | 79 | 360 | 7.0 | 13.0 | 0.00 | 0.00 | 0.00 | 25 | 1005.0 |
| 20260506010002 | 79 | 360 | 4.0 | 10.0 | 0.00 | 0.00 | 0.00 | 24 | 1004.8 |
| 20260506004501 | 80 | 360 | 4.0 | 8.0 | 0.00 | 0.00 | 0.00 | 23 | 1004.5 |
| 20260506003100 | 81 | 360 | 3.0 | 8.0 | 0.00 | 0.00 | 0.00 | 22 | 1004.4 |
| 20260506001605 | 81 | 360 | 5.0 | 11.0 | 0.00 | 0.00 | 0.00 | 21 | 1004.2 |
| 20260506000121 | 82 | 360 | 7.0 | 11.0 | 0.00 | 0.00 | 0.00 | 20 | 1004.0 |
| 20260505234601 | 82 | 66 | 4.0 | 9.0 | 0.00 | 0.00 | 0.00 | 20 | 1004.0 |
| 20260505233101 | 84 | 360 | 4.0 | 9.0 | 0.00 | 0.00 | 0.00 | 19 | 1004.1 |
| 20260505231613 | 85 | 360 | 2.0 | 9.0 | 0.00 | 0.00 | 0.00 | 18 | 1003.5 |
| 20260505230108 | 86 | 360 | 13.0 | 24.0 | 0.00 | 0.00 | 0.00 | 16 | 1003.4 |
| 20260505224558 | 88 | 298 | 14.0 | 26.0 | 0.00 | 0.00 | 0.00 | 8 | 1002.6 |
| 20260505223055 | 89 | 360 | 18.0 | 24.0 | 0.00 | 0.00 | 0.00 | 8 | 1003.2 |
| 20260505221600 | 89 | 360 | 16.0 | 28.0 | 0.00 | 0.00 | 0.00 | 9 | 1003.3 |
| 20260505220054 | 89 | 252 | 21.0 | 30.0 | 0.00 | 0.00 | 0.00 | 8 | 1003.4 |
| 20260505214553 | 90 | 360 | 16.0 | 26.0 | 0.00 | 0.00 | 0.00 | 8 | 1003.4 |
| 20260505213054 | 91 | 360 | 12.0 | 22.0 | 0.00 | 0.00 | 0.00 | 8 | 1003.3 |
| 20260505211552 | 90 | 360 | 10.0 | 19.0 | 0.00 | 0.00 | 0.00 | 9 | 1003.1 |
| 20260505210051 | 90 | 360 | 9.0 | 22.0 | 0.00 | 0.00 | 0.00 | 8 | 1003.6 |
| 20260505204553 | 90 | 360 | 13.0 | 26.0 | 0.00 | 0.00 | 0.00 | 7 | 1003.5 |
| 20260505203058 | 91 | 360 | 17.0 | 27.0 | 0.00 | 0.00 | 0.00 | 8 | 1003.7 |
| 20260505201550 | 92 | 360 | 9.0 | 19.0 | 0.00 | 0.00 | 0.00 | 8 | 1003.6 |
| 20260505200049 | 92 | 360 | 15.0 | 21.0 | 0.00 | 0.00 | 0.00 | 7 | 1003.6 |
| 20260505194604 | 92 | 238 | 8.0 | 18.0 | 0.00 | 0.00 | 0.00 | 8 | 1003.8 |
| 20260505193044 | 93 | 302 | 12.0 | 19.0 | 0.00 | 0.00 | 0.00 | 8 | 1003.8 |
| 20260505191554 | 92 | 248 | 7.0 | 19.0 | 0.00 | 0.00 | 0.00 | 9 | 1004.1 |
| 20260505190041 | 90 | 360 | 11.0 | 19.0 | 0.00 | 0.00 | 0.00 | 10 | 1004.1 |
| 20260505184539 | 90 | 360 | 13.0 | 24.0 | 0.00 | 0.00 | 0.00 | 9 | 1004.2 |
| 20260505183040 | 91 | 360 | 4.0 | 16.0 | 0.00 | 0.00 | 0.00 | 11 | 1004.4 |
| 20260505181537 | 89 | 305 | 7.0 | 20.0 | 0.00 | 0.00 | 0.00 | 14 | 1004.3 |
| 20260505180040 | 88 | 360 | 8.0 | 19.0 | 0.00 | 0.00 | 0.00 | 17 | 1004.7 |
| 20260505174532 | 86 | 247 | 9.0 | 18.0 | 0.00 | 0.00 | 0.00 | 22 | 1004.7 |
| 20260505173028 | 85 | 360 | 12.0 | 18.0 | 0.00 | 0.00 | 0.00 | 25 | 1004.7 |
| 20260505171522 | 83 | 360 | 14.0 | 19.0 | 0.00 | 0.00 | 0.00 | 29 | 1004.9 |
| 20260505170024 | 83 | 246 | 11.0 | 21.0 | 0.00 | 0.00 | 0.00 | 29 | 1005.0 |
| 20260505164518 | 82 | 241 | 12.0 | 18.0 | 0.00 | 0.00 | 0.00 | 31 | 1005.0 |
| 20260505163017 | 82 | 360 | 10.0 | 19.0 | 0.00 | 0.00 | 0.00 | 31 | 1005.1 |
| 20260505161513 | 81 | 256 | 15.0 | 22.0 | 0.00 | 0.00 | 0.00 | 32 | 1004.9 |
| 20260505153003 | 78 | 360 | 14.0 | 22.0 | 0.00 | 0.00 | 0.00 | 40 | 1004.5 |
| 20260505151601 | 78 | 360 | 11.0 | 19.0 | 0.00 | 0.00 | 0.00 | 42 | 1004.5 |
| 20260505150120 | 76 | 360 | 13.0 | 22.0 | 0.00 | 0.00 | 0.00 | 45 | 1004.4 |
| 20260505124556 | 69 | 360 | 11.0 | 18.0 | 0.00 | 0.00 | 0.00 | 59 | 1003.5 |
| 20260505123057 | 69 | 360 | 12.0 | 17.0 | 0.00 | 0.00 | 0.00 | 60 | 1003.3 |
| 20260505121618 | 68 | 360 | 13.0 | 20.0 | 0.00 | 0.00 | 0.00 | 60 | 1003.1 |
| 20260505120046 | 68 | 360 | 12.0 | 18.0 | 0.00 | 0.00 | 0.00 | 60 | 1003.1 |
| 20260505114545 | 68 | 360 | 11.0 | 18.0 | 0.00 | 0.00 | 0.00 | 60 | 1003.0 |
| 20260505113048 | 68 | 360 | 12.0 | 20.0 | 0.00 | 0.00 | 0.00 | 60 | 1002.8 |
| 20260505111548 | 68 | 236 | 13.0 | 19.0 | 0.00 | 0.00 | 0.00 | 60 | 1003.0 |
| 20260505101541 | 69 | 360 | 13.0 | 20.0 | 0.00 | 0.00 | 0.00 | 59 | 1002.7 |
| 20260505100042 | 69 | 360 | 12.0 | 20.0 | 0.00 | 0.00 | 0.00 | 59 | 1002.6 |
| 20260505094532 | 69 | 360 | 13.0 | 20.0 | 0.00 | 0.00 | 0.00 | 59 | 1002.5 |
| 20260505093032 | 70 | 360 | 11.0 | 17.0 | 0.00 | 0.00 | 0.00 | 58 | 1002.7 |
| 20260505091534 | 70 | 360 | 11.0 | 18.0 | 0.00 | 0.00 | 0.00 | 57 | 1002.6 |
| 20260505090025 | 70 | 360 | 13.0 | 20.0 | 0.00 | 0.00 | 0.00 | 57 | 1002.8 |
| 20260505084525 | 71 | 360 | 10.0 | 18.0 | 0.00 | 0.00 | 0.00 | 57 | 1002.8 |
| 20260505083032 | 71 | 360 | 11.0 | 18.0 | 0.00 | 0.00 | 0.00 | 56 | 1003.0 |
| 20260505081521 | 72 | 360 | 14.0 | 24.0 | 0.00 | 0.00 | 0.00 | 55 | 1003.0 |